| time (UTC) | temp F | wind direction | speed knots | gust knots | rain 1hr in | rain 24hr in | rain mn in | humidity % | barometer mb |
| 20260506134555 | 60 | 161 | 0.9 | 14.8 | 0.00 | 0.00 | 0.00 | 50 | 1020.2 |
| 20260506133045 | 59 | 0 | 0.9 | 7.8 | 0.00 | 0.00 | 0.00 | 52 | 1020.3 |
| 20260506131552 | 59 | 121 | 1.7 | 7.8 | 0.00 | 0.00 | 0.00 | 50 | 1020.1 |
| 20260506130059 | 59 | 159 | 4.3 | 13.0 | 0.00 | 0.00 | 0.00 | 50 | 1020.3 |
| 20260506124558 | 59 | 24 | 1.7 | 8.7 | 0.00 | 0.00 | 0.00 | 52 | 1020.5 |
| 20260506123050 | 58 | 68 | 0.0 | 7.0 | 0.00 | 0.00 | 0.00 | 53 | 1020.4 |
| 20260506121549 | 56 | 0 | 0.9 | 9.6 | 0.00 | 0.00 | 0.00 | 59 | 1020.6 |
| 20260506120048 | 55 | 91 | 1.7 | 8.7 | 0.00 | 0.00 | 0.00 | 60 | 1020.8 |
| 20260506114547 | 55 | 49 | 1.7 | 7.0 | 0.00 | 0.00 | 0.00 | 58 | 1020.8 |
| 20260506113053 | 55 | 77 | 0.0 | 2.6 | 0.00 | 0.00 | 0.00 | 60 | 1020.8 |
| 20260506111548 | 54 | 106 | 0.9 | 7.0 | 0.00 | 0.00 | 0.00 | 63 | 1020.9 |
| 20260506110053 | 53 | 71 | 0.0 | 7.8 | 0.00 | 0.00 | 0.00 | 62 | 1021.0 |
| 20260506104553 | 52 | 20 | 1.7 | 7.8 | 0.00 | 0.00 | 0.00 | 61 | 1021.0 |
| 20260506103050 | 53 | 215 | 0.9 | 3.5 | 0.00 | 0.00 | 0.00 | 63 | 1021.0 |
| 20260506101558 | 51 | 0 | 0.0 | 7.0 | 0.00 | 0.00 | 0.00 | 65 | 1021.0 |
| 20260506100109 | 51 | 0 | 0.9 | 4.3 | 0.00 | 0.00 | 0.00 | 66 | 1021.0 |
| 20260506094553 | 50 | 0 | 0.0 | 6.1 | 0.00 | 0.00 | 0.00 | 68 | 1021.0 |
| 20260506093053 | 50 | 147 | 0.9 | 6.1 | 0.00 | 0.00 | 0.00 | 68 | 1020.9 |
| 20260506091551 | 49 | 114 | 0.0 | 4.3 | 0.00 | 0.00 | 0.00 | 68 | 1020.9 |
| 20260506090050 | 49 | 205 | 0.9 | 3.5 | 0.00 | 0.00 | 0.00 | 71 | 1021.0 |
| 20260506084611 | 48 | 340 | 0.9 | 6.1 | 0.00 | 0.00 | 0.00 | 71 | 1021.0 |
| 20260506083048 | 48 | 183 | 0.0 | 7.0 | 0.00 | 0.00 | 0.00 | 74 | 1020.9 |
| 20260506081552 | 47 | 229 | 0.0 | 4.3 | 0.00 | 0.00 | 0.00 | 75 | 1020.9 |
| 20260506073048 | 47 | 0 | 0.0 | 3.5 | 0.00 | 0.00 | 0.00 | 77 | 1020.9 |
| 20260506071611 | 47 | 11 | 0.0 | 3.5 | 0.00 | 0.00 | 0.00 | 78 | 1020.7 |
| 20260506061550 | 45 | 199 | 0.0 | 4.3 | 0.00 | 0.00 | 0.00 | 79 | 1020.5 |
| 20260506044638 | 45 | 0 | 0.0 | 0.9 | 0.00 | 0.00 | 0.00 | 78 | 1020.2 |
| 20260506043050 | 46 | 32 | 0.0 | 4.3 | 0.00 | 0.00 | 0.00 | 78 | 1020.1 |
| 20260506041559 | 46 | 348 | 0.0 | 3.5 | 0.00 | 0.00 | 0.00 | 78 | 1020.1 |
| 20260506040054 | 46 | 40 | 0.0 | 1.7 | 0.00 | 0.00 | 0.00 | 78 | 1020.2 |
| 20260506034625 | 46 | 26 | 0.0 | 2.6 | 0.00 | 0.00 | 0.00 | 77 | 1020.1 |
| 20260506033101 | 46 | 65 | 0.9 | 4.3 | 0.00 | 0.00 | 0.00 | 76 | 1020.1 |
| 20260506031547 | 46 | 0 | 0.9 | 6.1 | 0.00 | 0.00 | 0.00 | 75 | 1020.2 |
| 20260506030051 | 47 | 32 | 0.9 | 5.2 | 0.00 | 0.00 | 0.00 | 75 | 1020.1 |
| 20260506024550 | 47 | 32 | 0.0 | 2.6 | 0.00 | 0.00 | 0.00 | 77 | 1020.3 |
| 20260506023107 | 47 | 35 | 0.0 | 7.8 | 0.00 | 0.00 | 0.00 | 79 | 1020.2 |
| 20260506021553 | 48 | 28 | 0.9 | 4.3 | 0.00 | 0.00 | 0.00 | 79 | 1020.1 |
| 20260506020050 | 48 | 10 | 0.0 | 3.5 | 0.00 | 0.00 | 0.00 | 79 | 1020.2 |
| 20260506014558 | 48 | 17 | 0.0 | 4.3 | 0.00 | 0.00 | 0.00 | 78 | 1020.3 |
| 20260506013052 | 48 | 26 | 0.9 | 3.5 | 0.00 | 0.00 | 0.00 | 77 | 1020.3 |
| 20260506011614 | 48 | 21 | 0.9 | 4.3 | 0.00 | 0.00 | 0.00 | 76 | 1020.4 |
| 20260506010100 | 49 | 0 | 2.6 | 7.8 | 0.00 | 0.00 | 0.00 | 75 | 1020.3 |
| 20260506004611 | 49 | 232 | 0.0 | 6.1 | 0.00 | 0.00 | 0.00 | 75 | 1020.3 |
| 20260506003103 | 49 | 186 | 0.9 | 7.0 | 0.00 | 0.00 | 0.00 | 76 | 1020.4 |
| 20260506001555 | 50 | 0 | 0.9 | 7.8 | 0.00 | 0.00 | 0.00 | 77 | 1020.3 |
| 20260506000053 | 50 | 217 | 0.9 | 4.3 | 0.00 | 0.00 | 0.00 | 79 | 1020.2 |
| 20260505234613 | 50 | 0 | 0.0 | 1.7 | 0.00 | 0.00 | 0.00 | 79 | 1020.2 |
| 20260505233048 | 50 | 0 | 0.0 | 6.1 | 0.00 | 0.00 | 0.00 | 79 | 1020.1 |
| 20260505231551 | 50 | 38 | 0.0 | 8.7 | 0.00 | 0.00 | 0.00 | 79 | 1020.2 |
| 20260505230045 | 50 | 53 | 0.0 | 2.6 | 0.00 | 0.00 | 0.00 | 79 | 1020.2 |
| 20260505224551 | 50 | 46 | 0.0 | 1.7 | 0.00 | 0.00 | 0.00 | 80 | 1020.1 |
| 20260505223050 | 50 | 0 | 0.0 | 0.9 | 0.00 | 0.00 | 0.00 | 80 | 1020.1 |
| 20260505221551 | 50 | 217 | 0.0 | 0.9 | 0.00 | 0.00 | 0.00 | 80 | 1020.1 |
| 20260505220103 | 50 | 205 | 0.0 | 0.9 | 0.00 | 0.00 | 0.00 | 79 | 1020.1 |
| 20260505214602 | 51 | 0 | 0.0 | 0.9 | 0.00 | 0.00 | 0.00 | 78 | 1020.0 |
| 20260505213100 | 51 | 0 | 0.0 | 0.9 | 0.00 | 0.00 | 0.00 | 77 | 1020.1 |
| 20260505211557 | 52 | 0 | 0.0 | 0.9 | 0.00 | 0.00 | 0.00 | 76 | 1020.1 |
| 20260505210048 | 52 | 0 | 0.0 | 1.7 | 0.00 | 0.00 | 0.00 | 75 | 1020.0 |
| 20260505204549 | 52 | 0 | 0.0 | 1.7 | 0.00 | 0.00 | 0.00 | 75 | 1020.0 |
| 20260505203054 | 52 | 0 | 0.0 | 1.7 | 0.00 | 0.00 | 0.00 | 74 | 1019.9 |
| 20260505201553 | 52 | 204 | 0.0 | 1.7 | 0.00 | 0.00 | 0.00 | 74 | 1019.9 |
| 20260505200054 | 53 | 207 | 0.0 | 2.6 | 0.00 | 0.00 | 0.00 | 73 | 1019.8 |
| 20260505194607 | 53 | 0 | 0.0 | 0.9 | 0.00 | 0.00 | 0.00 | 72 | 1019.6 |
| 20260505193057 | 54 | 198 | 0.0 | 1.7 | 0.00 | 0.00 | 0.00 | 71 | 1019.6 |
| 20260505191554 | 54 | 258 | 0.0 | 4.3 | 0.00 | 0.00 | 0.00 | 69 | 1019.4 |
| 20260505190050 | 55 | 239 | 0.0 | 3.5 | 0.00 | 0.00 | 0.00 | 68 | 1019.4 |
| 20260505184553 | 55 | 242 | 0.0 | 2.6 | 0.00 | 0.00 | 0.00 | 68 | 1019.4 |
| 20260505183052 | 56 | 240 | 0.0 | 7.0 | 0.00 | 0.00 | 0.00 | 67 | 1019.3 |
| 20260505181550 | 56 | 267 | 0.0 | 3.5 | 0.00 | 0.00 | 0.00 | 66 | 1019.3 |
| 20260505180057 | 57 | 269 | 0.9 | 2.6 | 0.00 | 0.00 | 0.00 | 64 | 1019.2 |
| 20260505174604 | 57 | 213 | 0.0 | 5.2 | 0.00 | 0.00 | 0.00 | 64 | 1019.3 |
| 20260505173048 | 57 | 143 | 0.9 | 6.1 | 0.00 | 0.00 | 0.00 | 65 | 1019.3 |
| 20260505171548 | 57 | 155 | 0.9 | 6.1 | 0.00 | 0.00 | 0.00 | 63 | 1019.3 |
| 20260505170126 | 58 | 107 | 0.9 | 5.2 | 0.00 | 0.00 | 0.00 | 62 | 1019.4 |
| 20260505164550 | 58 | 253 | 0.9 | 3.5 | 0.00 | 0.00 | 0.00 | 60 | 1019.4 |
| 20260505163052 | 59 | 207 | 0.9 | 4.3 | 0.00 | 0.00 | 0.00 | 59 | 1019.3 |
| 20260505161601 | 59 | 170 | 0.9 | 7.8 | 0.00 | 0.00 | 0.00 | 59 | 1019.2 |
| 20260505153059 | 61 | 149 | 0.9 | 2.6 | 0.00 | 0.00 | 0.00 | 56 | 1019.3 |
| 20260505151551 | 61 | 192 | 1.7 | 4.3 | 0.00 | 0.00 | 0.00 | 56 | 1019.3 |